{"data":{"norad_id":59197,"epoch":"2026-09-20T04:21:42.357600Z","epoch_age_seconds":186317,"freshness":"STALE","line1":"1 59197U 24045V   26263.18174025  .00011659  00000+0  43260-3 0  9992","line2":"2 59197  43.0005  74.3916 0000783 289.7537  70.3230 15.27575060142903","mean_motion":15.2757506,"eccentricity":7.83e-5,"inclination_deg":43.0005,"raan_deg":74.3916,"arg_perigee_deg":289.7537,"mean_anomaly_deg":70.323,"bstar":0.0004326,"rev_number":14290,"period_min":94.267053561348,"perigee_km":482.52665618712,"apogee_km":483.60112024622,"semimajor_km":6861.2008882167,"source":"CELESTRAK","updated_at":"2026-09-21T09:00:34.066297Z"}}